Torna al catalogo

STARLINK-32682

AttivoComunicazioniVLEO
NORAD 62196·PAYLOAD·🇺🇸 United States

Lanciato Dec 4, 2024 da Cape Canaveral Space Force Station

Loading…

Prossimi Passaggi (prossime 24 ore)

TLE

AggiornatoSource: CelesTrak SupGP

Epoca: Sep 14, 2026, 21:41 UTC

1 62196C 24229E   26257.90395833  .00040345  00000+0  14616-2 0  2577
2 62196  43.0011 249.4610 0001507 263.9810  43.9639 15.27551675    12

Traccia STARLINK-32682 in tempo reale con AllMySat

Download on the App Store